Weather History for Ohio State University, OH

Change the Weather History Date:

Friday, September 14, 2012

  Actual Average Record
Temperature  
Mean Temperature 64 °F -  
Max Temperature 77 °F 75 °F 93 °F (1998)
Min Temperature 48 °F 53 °F 43 °F (2013)
Degree Days  
Heating Degree Days 1    
Growing Degree Days 14 (Base 50)    
Moisture  
Dew Point 55 °F    
Average Humidity 78    
Maximum Humidity 97    
Minimum Humidity 58    
Precipitation  
Precipitation 0.00 in - - ()
Sea Level Pressure  
Sea Level Pressure 30.24 in    
Wind  
Wind Speed 5 mph (NNW)    
Max Wind Speed 17 mph    
Max Gust Speed 25 mph    
Visibility 9 miles    
Events      
Averages and records for this station are not official NWS values.
T = Trace of Precipitation, MM = Missing Value Source: NWS Daily Summary

Daily Weather History Graph

Daily Weather History Graph

Search for Another Location

Airport:

Trip Planner

Search our weather history database for the weather conditions in past years. The results will help you decide how hot, cold, wet, or windy it might be!

Date:

Astronomy

Sep. 14, 2012 Rise Set
Actual Time 7:12 AM EDT 7:41 PM EDT
Civil Twilight 6:45 AM EDT 8:09 PM EDT
Nautical Twilight 6:13 AM EDT 8:41 PM EDT
Astronomical Twilight 5:40 AM EDT 9:13 PM EDT
Moon 5:35 AM EDT (9/14) 6:37 PM EDT (9/14)
Length of Visible Light 13h 23m
Length of Day
12h 29m
Waning Crescent, 3% of the Moon is Illuminated
Sep 14
Waning Crescent
Sep 15
New
Sep 22
First Quarter
Sep 29
Full
Oct 8
Last Quarter

Hourly Weather History & Observations

Time (EDT) Temp. Dew Point Humidity Pressure Visibility Wind Dir Wind Speed Gust Speed Precip Events Conditions
12:53 AM 64.9 °F 59.0 °F 81% 30.22 in 10.0 mi SSW 3.5 mph - N/A   Clear
1:53 AM 66.0 °F 59.0 °F 78% 30.22 in 10.0 mi Calm Calm - N/A   Clear
2:53 AM 64.9 °F 57.9 °F 78% 30.21 in 9.0 mi SSE 3.5 mph - N/A   Clear
3:53 AM 63.0 °F 57.9 °F 84% 30.19 in 8.0 mi Calm Calm - N/A   Clear
4:53 AM 60.1 °F 57.0 °F 90% 30.19 in 8.0 mi West 5.8 mph - N/A   Clear
5:53 AM 61.0 °F 57.0 °F 87% 30.19 in 6.0 mi Calm Calm - N/A   Clear
6:53 AM 59.0 °F 55.9 °F 90% 30.19 in 6.0 mi Calm Calm - N/A   Clear
7:53 AM 61.0 °F 57.9 °F 90% 30.21 in 6.0 mi Calm Calm - N/A   Overcast
8:53 AM 66.9 °F 59.0 °F 76% 30.20 in 7.0 mi Calm Calm - N/A   Partly Cloudy
9:53 AM 71.1 °F 59.0 °F 66% 30.20 in 9.0 mi Calm Calm - N/A   Clear
10:53 AM 75.0 °F 60.1 °F 60% 30.20 in 10.0 mi Variable 3.5 mph - N/A   Mostly Cloudy
11:53 AM 77.0 °F 61.0 °F 58% 30.21 in 10.0 mi NW 10.4 mph - N/A   Mostly Cloudy
12:53 PM 71.1 °F 61.0 °F 70% 30.23 in 8.0 mi NW 16.1 mph - N/A   Mostly Cloudy
1:02 PM 68.0 °F 60.8 °F 78% 30.25 in 7.0 mi NNW 17.3 mph 24.2 mph N/A   Mostly Cloudy
1:53 PM 61.0 °F 55.9 °F 83% 30.25 in 10.0 mi NNW 13.8 mph - N/A   Overcast
2:11 PM 60.8 °F 53.6 °F 77% 30.26 in 10.0 mi NNW 15.0 mph 24.2 mph N/A   Overcast
2:53 PM 60.1 °F 53.1 °F 78% 30.25 in 10.0 mi North 16.1 mph 25.3 mph 0.00 in   Overcast
3:10 PM 60.8 °F 53.6 °F 77% 30.26 in 10.0 mi NNW 16.1 mph 21.9 mph N/A   Overcast
3:53 PM 59.0 °F 52.0 °F 78% 30.25 in 10.0 mi North 12.7 mph - N/A   Overcast
4:53 PM 59.0 °F 52.0 °F 78% 30.26 in 10.0 mi NNW 10.4 mph - N/A   Overcast
5:00 PM 59.0 °F 51.8 °F 77% 30.26 in 10.0 mi North 13.8 mph - N/A   Overcast
5:08 PM 59.0 °F 51.8 °F 77% 30.26 in 10.0 mi North 8.1 mph - N/A   Overcast
5:22 PM 59.0 °F 51.8 °F 77% 30.27 in 10.0 mi North 9.2 mph - N/A   Overcast
5:53 PM 59.0 °F 50.0 °F 72% 30.27 in 10.0 mi North 6.9 mph - N/A   Overcast
6:53 PM 59.0 °F 48.9 °F 69% 30.28 in 10.0 mi North 9.2 mph - N/A   Overcast
7:53 PM 55.9 °F 48.0 °F 75% 30.29 in 10.0 mi NNE 3.5 mph - N/A   Clear
8:53 PM 55.9 °F 48.0 °F 75% 30.30 in 10.0 mi NNW 3.5 mph - N/A   Clear
9:53 PM 53.1 °F 48.0 °F 83% 30.29 in 10.0 mi Calm Calm - N/A   Clear
10:53 PM 51.1 °F 48.0 °F 89% 30.30 in 10.0 mi Calm Calm - N/A   Clear
11:53 PM 48.9 °F 48.0 °F 97% 30.30 in 9.0 mi Calm Calm - N/A   Clear